Date,TemperatureHighF,TemperatureAvgF,TemperatureLowF,DewpointHighF,DewpointAvgF,DewpointLowF,HumidityHigh,HumidityAvg,HumidityLow,PressureMaxIn,PressureMinIn,WindSpeedMaxMPH,WindSpeedAvgMPH,GustSpeedMaxMPH,PrecipitationSumIn
2014-1-1,32.7,28.3,22.5,21.0,15.5,8.0,65,59,49,30.41,30.24,4,1,6,0.00
2014-1-2,31.1,24.5,13.8,23.0,19.5,11.0,91,81,64,30.23,29.68,9,3,12,0.00
2014-1-3,16.6,11.9,7.4,15.0,7.4,-3.0,92,82,61,30.47,29.64,14,3,16,0.00
2014-1-4,25.5,16.6,6.0,13.0,4.3,-3.0,73,59,38,30.53,30.30,5,1,8,0.00
2014-1-5,35.0,25.7,16.6,34.0,23.3,12.0,97,90,74,30.31,29.75,2,0,3,0.00
2014-1-6,55.5,41.8,16.7,55.0,35.6,-4.0,98,80,40,29.76,29.39,12,2,18,0.52
2014-1-7,15.2,7.3,2.7,-5.0,-10.2,-15.0,53,45,36,30.39,29.77,12,4,19,0.00
2014-1-8,21.0,14.2,7.1,4.0,-0.8,-6.0,62,52,44,30.56,30.39,5,2,9,0.00
2014-1-9,32.0,24.8,20.0,18.0,11.1,4.0,68,57,41,30.66,30.49,3,1,9,0.00
2014-1-10,34.2,31.1,27.3,33.0,26.5,18.0,96,83,67,30.58,30.21,0,0,2,0.07
2014-1-11,58.7,48.1,34.1,58.0,47.4,33.0,98,97,95,30.20,29.32,5,1,11,0.07
2014-1-12,53.1,43.4,37.3,52.0,32.5,28.0,95,66,52,30.07,29.39,9,2,12,0.00
2014-1-13,49.0,41.6,30.5,42.0,34.3,27.0,90,76,64,30.15,29.89,4,1,6,0.00
2014-1-14,47.3,45.5,41.4,46.0,42.6,37.0,95,89,81,29.89,29.66,3,0,7,0.00
2014-1-15,46.3,39.4,32.9,41.0,37.4,32.0,97,93,78,30.00,29.84,4,0,6,0.36
2014-1-16,41.6,38.7,34.7,40.0,33.2,30.0,95,80,74,29.95,29.84,3,1,7,0.00
2014-1-17,44.4,36.4,27.7,31.0,27.4,23.0,87,71,52,29.99,29.87,6,1,9,0.00
2014-1-18,40.2,34.7,27.4,33.0,27.4,19.0,94,75,65,29.87,29.67,5,1,10,0.15
2014-1-19,36.6,29.9,23.3,25.0,18.7,14.0,70,64,54,29.84,29.65,14,3,14,0.00
2014-1-20,46.3,38.5,31.2,31.0,25.4,18.0,74,60,47,29.89,29.58,13,2,17,0.00
2014-1-21,30.3,18.4,9.5,17.0,11.2,6.0,91,76,47,30.00,29.82,8,3,14,0.00
2014-1-22,15.5,10.0,4.0,7.0,-1.2,-5.0,89,62,44,30.00,29.79,10,3,16,0.00
2014-1-23,20.7,13.0,6.1,7.0,1.1,-5.0,68,60,48,30.30,30.00,13,2,13,0.00
2014-1-24,20.2,14.2,9.0,3.0,0.2,-3.0,65,55,39,30.40,30.09,8,2,12,0.00
2014-1-25,26.8,21.7,16.3,22.0,13.1,3.0,89,71,53,30.08,29.45,8,3,11,0.00
2014-1-26,26.7,21.0,15.8,17.0,7.8,-1.0,84,57,43,29.91,29.47,10,2,13,0.00
2014-1-27,43.7,29.5,19.6,29.0,15.2,-1.0,77,57,31,30.09,29.61,8,2,18,0.07
2014-1-28,19.4,15.7,11.2,-1.0,-4.6,-9.0,57,41,30,30.37,30.10,10,2,11,0.00
2014-1-29,22.9,16.9,12.4,9.0,1.6,-4.0,82,53,34,30.30,30.10,6,2,11,0.00
2014-1-30,29.5,21.0,13.3,12.0,5.3,0.0,61,51,37,30.46,30.20,5,1,8,0.00
2014-1-31,39.2,31.0,22.1,19.0,14.5,8.0,61,51,39,30.23,30.09,4,1,8,0.00
2014-2-1,44.5,36.5,30.6,32.0,25.1,19.0,92,65,43,30.32,30.02,5,1,8,0.00
2014-2-2,56.5,41.8,29.5,40.0,34.4,28.0,95,77,50,30.08,29.91,7,0,7,0.00
2014-2-3,41.4,32.0,26.6,34.0,29.8,25.0,95,92,75,30.31,30.08,3,0,6,0.15
2014-2-4,34.5,27.7,20.2,26.0,22.5,17.0,92,81,67,30.47,30.23,2,0,4,0.21
2014-2-5,33.4,31.3,27.9,32.0,29.5,25.0,95,93,79,30.23,29.63,6,1,10,0.12
2014-2-6,30.1,25.6,19.9,24.0,18.1,13.0,83,73,62,30.29,29.98,6,2,11,0.00
2014-2-7,32.9,27.4,22.6,19.0,17.0,14.0,78,65,53,30.33,30.21,6,2,10,0.00
2014-2-8,29.6,24.6,19.8,13.0,8.1,3.0,57,50,37,30.34,30.14,4,0,7,0.00
2014-2-9,30.4,24.5,19.1,23.0,13.0,5.0,89,63,49,30.19,30.00,3,0,6,0.00
2014-2-10,29.3,23.6,19.3,21.0,11.7,8.0,86,62,46,30.28,30.00,7,1,12,0.00
2014-2-11,24.9,19.8,14.9,9.0,6.0,4.0,67,56,45,30.48,30.28,6,2,10,0.00
2014-2-12,25.3,18.6,9.8,14.0,7.2,3.0,74,62,44,30.57,30.29,4,1,9,0.00
2014-2-13,33.0,30.1,21.0,32.0,28.8,16.0,97,95,76,30.28,29.02,7,3,13,0.01
2014-2-14,40.4,35.0,28.9,32.0,28.1,25.0,97,77,61,29.77,29.02,11,3,20,0.46
2014-2-15,36.3,31.9,26.2,31.0,27.2,18.0,95,83,68,29.78,29.57,11,2,14,0.03
2014-2-16,29.9,24.1,19.3,17.0,12.4,10.0,69,61,49,30.11,29.75,10,3,16,0.01
2014-2-17,31.2,23.6,16.2,14.0,7.3,1.0,67,51,32,30.38,30.11,9,1,13,0.00
2014-2-18,40.2,31.8,26.1,33.0,24.8,13.0,92,76,55,30.32,29.95,6,1,13,0.17
2014-2-19,42.3,35.2,26.3,38.0,31.6,23.0,93,86,71,30.10,29.68,3,0,12,0.31
2014-2-20,50.8,41.1,35.2,36.0,30.4,27.0,95,67,45,30.25,30.00,4,1,9,0.02
2014-2-21,45.0,38.3,34.9,45.0,37.1,33.0,98,95,87,30.01,29.65,4,1,8,0.11
2014-2-22,54.8,43.7,33.3,34.0,29.1,23.0,96,62,30,30.04,29.91,10,2,16,0.01
2014-2-23,55.1,46.0,34.4,34.0,30.7,29.0,85,57,38,30.01,29.84,6,0,11,0.00
2014-2-24,43.1,34.6,25.8,32.0,18.9,9.0,66,53,36,30.09,29.80,9,2,16,0.00
2014-2-25,33.1,27.4,22.7,16.0,12.0,8.0,61,53,45,30.09,29.92,10,1,13,0.00
2014-2-26,32.5,25.5,18.1,23.0,9.7,-3.0,85,53,32,29.97,29.81,9,2,11,0.00
2014-2-27,32.4,22.1,12.2,15.0,4.3,-11.0,70,48,33,30.10,29.61,11,3,19,0.01
2014-2-28,24.3,16.2,7.7,0.0,-5.0,-11.0,49,39,30,30.43,30.11,7,2,10,0.00
2014-3-1,39.1,28.6,15.3,21.0,10.9,-2.0,74,49,35,30.42,30.15,4,1,9,0.00
2014-3-2,40.6,35.9,31.6,27.0,21.2,16.0,70,56,47,30.14,29.98,6,1,8,0.00
2014-3-3,31.1,21.2,15.8,18.0,4.6,-2.0,77,49,41,30.33,30.01,7,3,14,0.00
2014-3-4,29.6,21.2,10.6,6.0,1.1,-3.0,57,43,30,30.43,30.24,5,1,8,0.00
2014-3-5,39.3,30.5,24.4,14.0,10.0,5.0,60,43,29,30.43,30.20,7,1,11,0.00
2014-3-6,30.4,23.3,14.4,14.0,7.0,0.0,60,51,35,30.63,30.44,6,2,10,0.00
2014-3-7,37.7,31.7,25.5,29.0,22.3,13.0,78,68,58,30.47,29.91,4,1,7,0.00
2014-3-8,58.2,45.3,33.6,33.0,30.7,29.0,89,60,36,29.91,29.76,6,1,10,0.00
2014-3-9,43.8,40.0,36.2,30.0,19.7,12.0,67,46,30,30.02,29.88,8,2,11,0.00
2014-3-10,51.9,43.0,36.9,36.0,26.2,16.0,78,53,40,29.93,29.61,5,1,11,0.00
2014-3-11,66.3,53.9,41.5,40.0,36.5,32.0,78,54,35,29.68,29.56,5,1,13,0.00
2014-3-12,57.3,49.9,35.1,55.0,42.4,31.0,96,76,60,29.66,29.00,6,0,16,0.34
2014-3-13,33.6,23.3,17.3,28.0,4.6,-3.0,79,47,29,30.09,29.18,14,4,18,0.00
2014-3-14,47.3,33.2,21.1,27.0,11.5,-1.0,62,41,27,30.22,29.89,10,2,14,0.00
2014-3-15,58.9,50.4,41.6,32.0,28.0,25.0,60,43,28,29.99,29.74,13,3,19,0.00
2014-3-16,43.7,34.3,29.9,26.0,11.1,5.0,52,39,28,30.19,29.99,11,3,11,0.00
2014-3-17,33.1,27.9,21.9,9.0,4.5,-3.0,47,37,29,30.13,30.03,7,2,12,0.00
2014-3-18,41.5,33.0,24.5,27.0,13.5,4.0,76,47,23,30.29,30.11,5,1,9,0.00
2014-3-19,45.2,38.0,30.2,44.0,32.7,25.0,95,81,68,30.31,29.83,4,1,11,0.84
2014-3-20,55.2,46.0,39.7,42.0,33.1,24.0,96,65,37,29.90,29.73,9,3,19,0.04
2014-3-21,52.1,44.1,37.8,24.0,21.5,19.0,53,42,28,30.05,29.90,9,2,11,0.00
2014-3-22,63.9,49.6,36.5,39.0,30.7,22.0,75,51,27,30.05,29.74,10,3,14,0.00
2014-3-23,42.8,38.2,27.2,27.0,18.2,6.0,61,46,28,30.12,29.98,8,2,11,0.00
2014-3-24,34.7,27.3,20.0,8.0,5.5,4.0,54,40,28,30.24,30.10,10,2,13,0.00
2014-3-25,39.3,32.1,22.5,21.0,13.3,7.0,63,47,30,30.16,29.85,9,1,11,0.00
2014-3-26,35.9,31.5,24.0,20.0,10.2,2.0,61,42,28,30.22,29.74,13,4,24,0.02
2014-3-27,44.8,32.8,20.9,21.0,10.0,6.0,56,41,21,30.42,30.23,6,2,10,0.00
2014-3-28,61.7,48.6,35.5,52.0,39.8,21.0,86,72,53,30.25,29.95,8,1,12,0.05
2014-3-29,56.7,47.6,43.9,52.0,44.1,40.0,96,88,75,30.18,29.68,6,1,10,2.03
2014-3-30,47.2,44.9,40.8,46.0,42.7,37.0,97,92,83,29.67,29.47,10,3,21,0.92
2014-3-31,55.1,44.4,35.7,37.0,34.6,29.0,92,71,47,30.07,29.67,11,3,13,0.19
2014-4-1,61.3,46.2,35.8,37.0,32.4,28.0,76,60,38,30.13,29.96,5,1,8,0.00
2014-4-2,51.4,45.3,40.3,44.0,40.0,35.0,92,82,74,30.14,30.04,4,0,5,0.00
2014-4-3,65.7,52.6,42.5,43.0,33.8,23.0,94,55,23,30.12,29.98,6,1,8,0.03
2014-4-4,46.9,42.4,39.5,42.0,38.6,36.0,96,86,75,30.07,29.75,6,2,10,0.35
2014-4-5,55.3,46.6,39.7,43.0,33.7,24.0,96,65,39,30.07,29.71,11,2,14,0.01
2014-4-6,60.9,45.9,34.4,33.0,25.0,18.0,66,47,20,30.20,30.07,5,1,10,0.00
2014-4-7,51.2,44.9,38.9,44.0,36.9,25.0,96,75,37,30.20,29.71,7,1,11,0.58
2014-4-8,66.3,53.7,43.4,58.0,44.3,35.0,98,74,45,29.68,29.39,9,2,21,0.39
2014-4-9,62.4,52.0,42.4,37.0,31.2,22.0,76,48,27,30.03,29.62,9,2,17,0.00
2014-4-10,60.0,51.0,36.4,40.0,28.2,17.0,56,42,29,30.21,30.02,13,2,14,0.00
2014-4-11,77.7,62.9,53.0,52.0,43.8,33.0,78,51,31,30.02,29.91,9,2,12,0.00
2014-4-12,74.5,60.6,48.2,52.0,41.4,31.0,89,54,21,30.22,30.00,5,1,10,0.00
2014-4-13,82.3,65.2,51.1,57.0,49.3,32.0,82,58,35,30.19,29.94,7,2,16,0.00
2014-4-14,79.5,69.5,62.2,60.0,57.0,53.0,83,66,43,30.00,29.83,12,4,20,0.00
2014-4-15,65.5,56.8,33.1,63.0,53.7,31.0,96,90,75,29.91,29.50,15,3,17,0.78
2014-4-16,47.3,38.7,30.2,32.0,21.3,17.0,94,53,31,30.56,29.91,9,3,15,0.14
2014-4-17,49.3,40.9,34.3,33.0,27.0,18.0,77,59,43,30.72,30.56,7,2,12,0.00
2014-4-18,49.5,42.0,34.8,35.0,30.9,27.0,75,66,51,30.60,30.26,3,1,7,0.00
2014-4-19,67.8,54.2,39.7,39.0,30.7,23.0,84,47,19,30.33,30.20,6,2,12,0.00
2014-4-20,57.3,50.3,42.9,36.0,30.2,27.0,67,47,34,30.48,30.32,7,2,14,0.00
2014-4-21,65.9,51.2,37.2,44.0,33.7,24.0,77,55,23,30.31,29.87,8,1,14,0.00
2014-4-22,74.5,60.4,48.5,55.0,49.1,43.0,87,68,43,29.87,29.49,6,2,10,0.00
2014-4-23,61.3,53.6,44.3,50.0,38.3,31.0,74,57,41,29.84,29.48,12,4,19,0.01
2014-4-24,62.1,51.4,41.6,31.0,20.1,13.0,62,33,16,30.01,29.83,9,3,16,0.00
2014-4-25,61.9,51.5,40.8,42.0,28.2,20.0,76,43,25,30.04,29.76,9,2,15,0.00
2014-4-26,68.7,53.2,45.6,48.0,45.2,41.0,95,77,41,29.87,29.68,9,1,11,0.83
2014-4-27,58.6,52.5,45.9,40.0,36.2,34.0,70,55,41,30.11,29.87,7,2,17,0.00
2014-4-28,66.2,55.1,44.0,42.0,36.9,33.0,77,53,30,30.11,29.99,5,1,8,0.00
2014-4-29,54.6,47.7,43.3,43.0,39.9,38.0,86,75,58,30.41,30.10,8,2,10,0.07
2014-4-30,50.3,45.0,41.3,50.0,43.5,38.0,98,94,83,30.39,29.96,6,1,9,6.04
2014-5-1,79.3,65.3,49.4,63.0,55.4,49.0,99,75,38,29.95,29.65,7,2,11,0.25
2014-5-2,69.3,62.8,55.4,52.0,42.9,37.0,81,51,32,29.84,29.70,8,2,14,0.00
2014-5-3,73.3,61.2,50.1,52.0,43.0,38.0,86,54,33,29.87,29.72,8,1,13,0.07
2014-5-4,66.0,58.2,52.8,51.0,43.4,37.0,86,61,35,29.78,29.64,13,4,18,0.00
2014-5-5,69.7,61.9,49.4,38.0,30.1,23.0,64,33,19,29.88,29.80,7,2,14,0.00
2014-5-6,71.3,60.0,50.4,38.0,32.6,26.0,53,37,23,30.06,29.86,6,1,13,0.00
2014-5-7,71.3,59.0,46.1,44.0,35.2,31.0,60,42,27,30.23,30.07,7,1,12,0.00
2014-5-8,58.5,55.5,52.2,56.0,52.3,43.0,95,89,58,30.18,30.08,2,0,8,0.46
2014-5-9,61.5,58.7,55.3,60.0,57.2,54.0,97,94,90,30.17,29.99,5,1,7,0.10
2014-5-10,84.7,67.2,56.1,68.0,61.7,56.0,98,84,51,29.99,29.81,9,2,20,0.14
2014-5-11,83.2,71.9,59.2,63.0,48.0,38.0,92,48,22,30.06,29.85,6,1,10,0.08
2014-5-12,87.0,73.7,58.8,64.0,56.7,49.0,76,57,37,30.11,30.00,6,1,11,0.00
2014-5-13,73.1,64.8,52.6,64.0,51.1,43.0,89,63,40,30.28,29.99,6,2,14,0.00
2014-5-14,70.2,58.8,52.6,60.0,51.9,44.0,95,78,62,30.30,30.22,6,1,9,0.00
2014-5-15,66.6,63.0,59.5,64.0,61.7,58.0,97,95,90,30.23,30.08,7,1,11,0.12
2014-5-16,65.8,63.2,59.8,65.0,62.1,58.0,98,96,93,30.07,29.80,12,3,21,1.11
2014-5-17,70.9,62.1,52.2,57.0,46.8,39.0,93,61,36,30.10,29.83,7,2,14,0.00
2014-5-18,66.5,59.3,49.6,44.0,40.0,34.0,80,51,37,30.19,30.10,5,1,11,0.00
2014-5-19,72.4,60.9,46.0,43.0,37.4,33.0,64,44,26,30.21,30.05,9,1,13,0.00
2014-5-20,81.4,68.3,54.2,46.0,41.2,34.0,65,41,21,30.12,29.95,6,1,11,0.00
2014-5-21,76.3,69.8,64.7,58.0,52.0,46.0,74,54,44,29.98,29.88,5,1,7,0.00
2014-5-22,66.8,62.6,59.4,61.0,59.5,57.0,95,90,75,29.88,29.78,5,1,10,0.67
2014-5-23,71.7,62.0,56.9,62.0,58.4,55.0,95,88,65,29.93,29.82,3,0,11,1.28
2014-5-24,71.2,61.0,55.4,59.0,56.3,54.0,96,85,58,30.07,29.91,2,0,7,0.71
2014-5-25,83.4,68.3,52.5,59.0,53.4,45.0,98,65,28,30.09,29.99,4,1,16,0.01
2014-5-26,90.0,76.7,60.8,57.0,53.4,49.0,76,47,28,30.04,29.87,7,2,14,0.00
2014-5-27,89.9,79.6,67.3,68.0,60.6,56.0,70,53,37,29.89,29.74,6,2,11,0.00
2014-5-28,74.4,60.2,54.9,65.0,54.3,47.0,90,81,71,30.16,29.78,5,1,9,0.00
2014-5-29,67.3,57.7,52.1,49.0,46.0,42.0,78,66,50,30.21,30.14,6,1,11,0.00
2014-5-30,76.4,65.6,55.4,58.0,50.5,39.0,81,59,46,30.14,29.95,4,1,12,0.04
2014-5-31,74.8,64.8,56.7,55.0,50.1,44.0,79,61,36,30.28,30.06,8,2,15,0.00
2014-6-1,79.2,67.1,52.9,49.0,43.3,36.0,79,46,22,30.35,30.24,5,1,11,0.00
2014-6-2,86.0,72.9,56.7,60.0,52.1,42.0,68,49,37,30.26,30.00,7,2,10,0.00
2014-6-3,88.2,75.2,66.0,71.0,63.5,57.0,94,69,49,30.01,29.79,8,1,14,0.78
2014-6-4,84.0,73.0,64.5,66.0,63.5,54.0,96,74,47,29.84,29.72,4,1,10,0.00
2014-6-5,77.3,68.6,61.7,65.0,59.9,51.0,96,76,44,29.79,29.63,6,1,9,0.98
2014-6-6,78.4,68.9,60.5,55.0,52.2,50.0,69,56,42,29.93,29.78,6,2,10,0.00
2014-6-7,84.7,73.1,59.8,59.0,55.5,53.0,78,56,36,29.99,29.90,4,1,7,0.00
2014-6-8,89.5,76.1,63.1,62.0,58.4,53.0,84,57,30,29.94,29.85,8,1,14,0.00
2014-6-9,74.0,66.6,62.7,67.0,62.9,56.0,97,89,54,29.95,29.88,3,0,6,2.69
2014-6-10,80.3,72.0,64.5,71.0,67.5,63.0,98,86,72,29.97,29.91,3,0,5,0.00
2014-6-11,71.4,66.5,62.1,68.0,61.3,59.0,93,83,71,30.10,29.97,6,1,9,0.03
2014-6-12,73.8,65.9,60.3,70.0,63.7,59.0,96,92,84,30.07,29.90,5,1,9,0.06
2014-6-13,83.0,70.6,65.6,73.0,68.1,65.0,98,92,69,29.90,29.70,4,0,9,0.86
2014-6-14,76.3,69.2,60.7,68.0,58.6,49.0,97,71,48,30.02,29.76,7,2,11,0.00
2014-6-15,82.9,70.7,59.1,58.0,54.9,52.0,78,59,41,30.10,30.02,6,2,12,0.00
2014-6-16,82.4,72.6,61.3,63.0,59.0,56.0,85,64,43,30.15,30.04,5,1,12,0.00
2014-6-17,91.4,81.7,71.0,74.0,67.4,62.0,77,63,47,30.05,29.86,4,1,9,0.00
2014-6-18,92.0,85.4,80.4,72.0,66.4,61.0,74,54,38,29.95,29.79,7,2,12,0.00
2014-6-19,79.6,74.6,68.9,68.0,66.3,63.0,84,76,62,30.00,29.92,5,1,10,0.01
2014-6-20,82.9,73.5,62.1,62.0,50.4,43.0,72,46,26,30.01,29.88,5,1,7,0.00
2014-6-21,79.7,70.8,61.9,58.0,51.0,48.0,70,51,38,29.97,29.87,7,2,11,0.00
2014-6-22,82.0,71.1,62.2,60.0,56.0,52.0,82,61,39,30.02,29.91,8,1,13,0.00
2014-6-23,85.3,73.6,62.0,64.0,59.6,55.0,85,63,41,30.13,30.02,6,1,13,0.00
2014-6-24,83.8,75.4,66.9,67.0,61.1,55.0,79,62,40,30.14,29.99,5,2,11,0.00
2014-6-25,86.4,77.8,70.8,74.0,70.5,63.0,89,78,63,30.01,29.81,8,2,12,0.15
2014-6-26,88.3,78.9,70.8,71.0,69.0,65.0,95,74,53,29.95,29.79,5,1,14,0.28
2014-6-27,84.8,75.7,69.6,68.0,63.7,58.0,85,67,48,30.21,29.95,7,1,11,0.00
2014-6-28,90.3,76.1,64.0,63.0,59.2,52.0,83,59,28,30.26,30.20,9,1,14,0.00
2014-6-29,84.6,75.8,66.7,67.0,60.7,55.0,77,60,46,30.25,30.10,8,2,15,0.00
2014-6-30,88.1,77.2,67.7,71.0,64.9,55.0,86,67,41,30.11,29.92,7,1,11,0.00
2014-7-1,94.9,83.2,72.5,74.0,70.2,65.0,86,66,47,29.95,29.79,6,2,13,0.00
2014-7-2,92.4,81.3,72.9,78.0,73.0,70.0,95,77,58,29.94,29.79,9,1,14,2.03
2014-7-3,89.7,78.5,70.0,78.0,73.4,69.0,97,85,66,30.00,29.84,9,1,15,1.19
2014-7-4,74.9,70.5,65.6,70.0,64.2,54.0,97,81,58,30.00,29.88,7,2,14,0.13
2014-7-5,84.5,73.8,62.6,56.0,52.9,51.0,67,50,33,30.14,30.00,6,2,12,0.00
2014-7-6,90.0,78.2,64.3,62.0,57.0,54.0,72,50,32,30.09,29.91,8,2,13,0.00
2014-7-7,93.8,83.6,73.0,69.0,66.1,62.0,76,57,40,29.92,29.71,8,2,15,0.00
2014-7-8,97.4,84.2,72.2,72.0,70.0,65.0,94,65,39,29.85,29.64,9,2,18,0.25
2014-7-9,93.3,80.9,72.0,71.0,67.0,63.0,85,65,39,29.93,29.75,7,2,10,0.00
2014-7-10,86.2,76.8,70.8,67.0,64.7,60.0,79,67,41,30.12,29.93,5,1,12,0.00
2014-7-11,87.2,77.3,70.5,68.0,62.9,57.0,85,63,40,30.20,30.11,6,1,8,0.00
2014-7-12,88.8,78.0,69.6,68.0,64.7,59.0,89,65,42,30.21,30.10,8,1,12,0.00
2014-7-13,85.9,78.5,72.1,75.0,70.8,61.0,88,77,60,30.11,29.86,7,2,12,0.12
2014-7-14,86.0,76.8,72.0,75.0,72.6,70.0,96,87,68,29.93,29.80,6,1,9,1.32
2014-7-15,89.3,76.7,71.8,77.0,73.3,71.0,96,89,66,29.80,29.71,7,1,7,0.94
2014-7-16,85.2,75.5,69.1,72.0,64.5,58.0,96,71,45,29.86,29.73,6,1,8,0.01
2014-7-17,85.3,74.6,65.8,61.0,58.2,55.0,77,58,37,30.09,29.86,4,1,8,0.00
2014-7-18,84.3,74.3,62.8,59.0,56.4,52.0,82,56,34,30.22,30.09,4,1,6,0.00
2014-7-19,80.2,73.8,67.8,65.0,59.6,56.0,76,62,45,30.23,30.16,8,1,10,0.00
2014-7-20,81.1,72.8,66.8,66.0,63.1,59.0,84,72,54,30.16,30.08,4,1,7,0.00
2014-7-21,86.5,75.5,65.4,68.0,64.4,62.0,91,70,47,30.18,30.11,3,1,8,0.00
2014-7-22,92.2,81.0,70.4,71.0,67.7,63.0,79,65,48,30.16,30.03,4,1,8,0.00
2014-7-23,93.8,82.1,72.3,76.0,70.7,64.0,91,69,53,30.02,29.74,6,2,11,0.19
2014-7-24,83.6,76.2,71.6,73.0,63.9,56.0,90,67,48,29.90,29.78,5,1,7,0.00
2014-7-25,85.1,75.4,65.6,64.0,57.8,55.0,72,56,39,30.02,29.90,5,1,11,0.00
2014-7-26,83.8,75.4,68.5,72.0,64.8,59.0,87,71,50,29.99,29.87,5,1,10,0.30
2014-7-27,91.1,79.9,70.9,75.0,69.9,67.0,93,74,48,29.88,29.61,5,1,9,0.02
2014-7-28,85.4,76.3,68.5,74.0,66.1,60.0,94,73,48,29.68,29.50,9,2,13,0.19
2014-7-29,77.6,70.1,63.5,59.0,55.0,52.0,75,60,42,29.96,29.68,4,1,8,0.00
2014-7-30,82.8,72.2,60.7,61.0,54.9,49.0,82,57,34,30.03,29.95,5,1,7,0.00
2014-7-31,85.5,75.4,64.4,69.0,61.9,57.0,78,64,43,30.12,30.03,5,1,10,0.01
2014-8-1,85.7,76.2,70.6,72.0,68.5,66.0,88,77,58,30.19,30.12,10,1,11,0.01
2014-8-2,75.9,70.8,64.9,69.0,65.2,63.0,94,82,65,30.18,30.08,4,1,8,0.56
2014-8-3,77.4,71.1,66.4,67.0,65.3,64.0,95,82,66,30.11,30.01,4,0,6,0.08
2014-8-4,87.0,77.4,69.8,72.0,67.5,65.0,91,73,51,30.05,29.99,4,1,12,0.00
2014-8-5,91.4,80.0,68.3,70.0,65.9,62.0,89,64,38,30.02,29.88,3,1,8,0.00
2014-8-6,85.3,77.1,70.5,65.0,62.4,58.0,81,62,43,29.90,29.82,5,1,10,0.00
2014-8-7,85.4,74.5,64.6,60.0,55.7,51.0,72,54,34,30.01,29.88,6,2,11,0.00
2014-8-8,83.9,74.1,62.7,58.0,55.9,53.0,75,55,37,30.08,30.01,5,1,7,0.00
2014-8-9,87.5,76.7,64.7,62.0,57.2,52.0,79,53,33,30.11,30.04,5,1,6,0.00
2014-8-10,90.0,78.2,65.0,64.0,59.7,56.0,81,55,33,30.13,30.05,3,0,7,0.00
2014-8-11,86.5,76.3,67.5,68.0,63.1,59.0,83,65,39,30.12,30.07,9,1,12,0.00
2014-8-12,80.9,74.9,71.3,72.0,68.6,67.0,90,81,68,30.07,29.85,8,2,18,0.09
2014-8-13,84.1,74.3,68.3,70.0,67.4,61.0,97,80,57,29.84,29.63,7,2,12,0.64
2014-8-14,81.3,71.6,62.1,61.0,55.0,53.0,77,57,40,29.88,29.77,7,2,9,0.00
2014-8-15,74.2,67.9,59.8,56.0,52.0,49.0,74,58,47,29.97,29.87,5,1,10,0.00
2014-8-16,81.2,72.3,62.0,55.0,53.8,51.0,74,54,38,30.00,29.89,8,1,10,0.00
2014-8-17,84.1,74.3,65.6,66.0,58.6,54.0,78,59,44,29.90,29.80,5,1,12,0.00
2014-8-18,82.6,72.6,60.8,60.0,56.4,55.0,82,58,42,29.92,29.80,7,1,9,0.00
2014-8-19,85.1,73.0,63.5,67.0,61.3,56.0,84,67,47,29.93,29.85,7,1,7,0.00
2014-8-20,85.6,76.1,69.0,67.0,63.2,56.0,89,67,41,30.02,29.92,5,1,11,0.00
2014-8-21,82.7,74.3,66.6,68.0,64.2,60.0,91,72,54,30.05,29.98,8,1,14,0.48
2014-8-22,77.5,70.1,66.4,67.0,64.2,60.0,95,82,65,30.04,29.98,5,0,6,0.26
2014-8-23,76.4,70.0,66.2,64.0,61.7,59.0,87,75,56,30.11,30.02,4,0,7,0.00
2014-8-24,82.6,71.5,62.8,64.0,61.3,59.0,89,72,50,30.14,30.09,5,1,10,0.00
2014-8-25,89.0,75.6,60.4,64.0,61.3,59.0,94,65,39,30.17,30.09,3,0,6,0.00
2014-8-26,89.5,77.5,67.8,70.0,65.8,63.0,85,68,46,30.16,30.05,8,1,10,0.00
2014-8-27,93.8,81.2,66.6,71.0,66.7,61.0,89,63,42,30.06,29.83,4,1,7,0.00
2014-8-28,82.0,75.0,66.1,71.0,57.8,49.0,83,56,39,30.05,29.82,7,2,12,0.00
2014-8-29,80.6,69.9,60.4,58.0,54.0,50.0,76,59,39,30.24,30.04,6,1,11,0.00
2014-8-30,79.8,71.8,60.4,67.0,61.7,56.0,86,71,52,30.26,30.13,10,1,11,0.00
2014-8-31,92.8,78.8,72.5,76.0,71.3,66.0,95,79,53,30.14,29.92,7,1,9,0.81
2014-9-1,91.7,82.2,74.9,75.0,73.3,72.0,91,75,53,30.00,29.89,4,1,8,0.01
2014-9-2,95.1,85.3,76.2,75.0,72.8,69.0,92,68,46,29.92,29.77,10,2,13,0.00
2014-9-3,87.2,79.1,71.1,69.0,62.9,57.0,78,59,39,30.09,29.80,7,1,11,0.00
2014-9-4,88.9,77.4,65.0,69.0,62.7,57.0,84,63,37,30.18,30.09,9,1,13,0.00
2014-9-5,87.5,77.7,71.8,77.0,72.2,65.0,92,83,65,30.16,30.00,3,1,10,0.12
2014-9-6,93.8,80.4,67.9,77.0,73.0,64.0,93,79,55,29.99,29.81,5,1,11,0.16
2014-9-7,80.7,71.9,64.7,65.0,59.5,53.0,90,67,46,30.18,29.93,5,1,9,0.00
2014-9-8,76.4,69.5,62.8,63.0,57.4,54.0,78,66,51,30.30,30.18,6,1,10,0.00
2014-9-9,73.3,67.6,61.6,64.0,60.0,55.0,88,77,66,30.26,30.12,7,1,8,0.02
2014-9-10,79.5,70.1,63.0,64.0,61.0,57.0,85,74,50,30.12,30.01,6,1,9,0.00
2014-9-11,84.3,75.1,67.2,72.0,67.4,58.0,90,77,64,30.01,29.80,6,2,11,0.00
2014-9-12,78.7,68.5,60.1,57.0,54.5,51.0,76,62,45,30.17,29.93,4,1,12,0.00
2014-9-13,69.2,62.6,58.7,62.0,56.5,50.0,95,81,68,30.17,30.07,8,1,11,0.16
2014-9-14,72.6,61.4,51.5,54.0,48.9,45.0,87,66,40,30.27,30.15,4,1,8,0.00
2014-9-15,74.2,62.6,51.8,53.0,48.4,45.0,79,62,37,30.23,30.06,4,1,7,0.00
2014-9-16,70.6,63.1,57.1,61.0,55.5,52.0,95,77,58,30.06,29.94,2,0,5,0.64
2014-9-17,74.8,63.3,51.9,54.0,48.9,45.0,92,63,36,30.05,29.94,4,1,7,0.00
2014-9-18,77.2,65.2,52.4,53.0,50.6,48.0,92,62,39,30.09,29.94,3,0,6,0.00
2014-9-19,66.2,60.6,54.1,52.0,48.5,41.0,78,65,51,30.36,30.10,6,2,10,0.00
2014-9-20,75.3,66.8,56.9,66.0,58.8,51.0,90,76,60,30.33,30.04,10,1,15,0.00
2014-9-21,78.2,70.8,65.7,70.0,67.2,65.0,96,88,74,30.04,29.59,2,0,7,0.09
2014-9-22,71.5,65.1,54.7,68.0,52.2,41.0,89,64,48,30.17,29.62,7,2,16,0.00
2014-9-23,73.5,60.6,46.9,55.0,46.4,41.0,82,61,37,30.39,30.17,3,0,7,0.00
2014-9-24,71.5,63.3,54.8,59.0,54.7,51.0,88,74,59,30.54,30.40,5,1,6,0.00
2014-9-25,64.4,61.0,57.1,59.0,56.2,54.0,92,84,70,30.45,30.20,6,1,9,0.46
2014-9-26,77.5,66.2,55.3,57.0,54.0,50.0,89,67,41,30.21,30.13,4,1,9,0.00
2014-9-27,84.1,69.8,56.0,60.0,56.6,53.0,92,66,38,30.21,30.13,4,0,8,0.00
2014-9-28,87.0,72.0,59.0,65.0,61.1,56.0,92,71,42,30.16,29.99,3,0,6,0.00
2014-9-29,79.7,72.2,64.9,64.0,61.4,59.0,86,70,51,29.99,29.88,3,0,6,0.00
2014-9-30,71.4,67.7,64.0,64.0,61.0,58.0,87,79,68,29.97,29.90,4,1,6,0.00
2014-10-1,65.3,63.2,61.6,61.0,58.8,57.0,89,85,82,30.07,29.96,5,1,9,0.00
2014-10-2,69.6,63.7,59.5,59.0,57.4,56.0,94,80,66,30.13,30.06,3,1,6,0.00
2014-10-3,72.0,63.0,55.5,57.0,54.2,51.0,87,74,50,30.11,29.83,6,1,11,0.00
2014-10-4,69.4,63.5,52.1,68.0,57.3,38.0,97,81,57,29.83,29.49,5,2,10,1.13
2014-10-5,62.1,52.1,44.0,41.0,37.4,35.0,76,59,42,29.98,29.69,7,2,10,0.00
2014-10-6,73.0,58.1,43.3,54.0,46.9,40.0,92,69,42,30.06,29.98,11,2,15,0.00
2014-10-7,72.9,66.8,59.9,61.0,56.2,51.0,88,70,48,30.04,29.90,8,1,10,0.02
2014-10-8,73.9,67.0,61.9,63.0,53.7,42.0,93,65,41,29.94,29.77,14,2,14,0.10
2014-10-9,68.9,62.3,54.4,43.0,41.3,39.0,64,47,34,30.05,29.93,7,2,13,0.00
2014-10-10,63.8,57.3,47.4,46.0,42.1,40.0,78,58,44,30.12,30.03,3,0,5,0.00
2014-10-11,58.0,52.7,49.1,51.0,49.0,45.0,94,87,63,30.16,30.02,3,0,8,0.43
2014-10-12,63.6,53.2,43.1,48.0,42.9,37.0,94,71,41,30.31,30.16,4,0,5,0.00
2014-10-13,64.7,57.8,48.0,62.0,52.3,43.0,96,82,69,30.32,30.22,6,0,7,0.08
2014-10-14,77.4,68.3,61.4,67.0,64.2,61.0,98,87,68,30.22,30.09,7,1,13,0.00
2014-10-15,75.9,70.4,67.7,69.0,67.4,65.0,96,90,79,30.08,29.82,10,2,15,0.43
2014-10-16,74.1,68.2,61.0,68.0,62.3,55.0,97,82,58,29.82,29.66,5,1,11,0.98
2014-10-17,74.1,65.3,59.1,56.0,54.5,51.0,86,70,46,29.73,29.66,7,2,10,0.00
2014-10-18,70.8,62.0,55.9,57.0,51.4,44.0,91,70,48,29.71,29.55,7,1,13,0.00
2014-10-19,56.1,51.0,42.8,45.0,35.6,28.0,68,57,39,30.06,29.71,9,2,15,0.00
2014-10-20,61.9,50.4,39.6,47.0,35.6,29.0,74,58,42,30.11,29.95,4,1,11,0.00
2014-10-21,66.5,57.6,51.2,56.0,50.8,45.0,95,79,61,29.95,29.80,5,1,10,1.03
2014-10-22,56.1,53.8,50.1,54.0,51.4,48.0,95,91,79,29.92,29.72,9,2,16,1.37
2014-10-23,53.6,51.8,50.2,51.0,48.2,46.0,94,88,78,29.77,29.69,9,3,13,0.81
2014-10-24,65.7,56.0,49.5,50.0,45.9,42.0,83,70,52,29.83,29.73,6,1,12,0.00
2014-10-25,69.0,58.8,45.6,47.0,43.1,38.0,79,57,43,29.86,29.55,8,1,11,0.00
2014-10-26,63.5,58.1,50.8,50.0,40.9,36.0,71,54,40,29.83,29.53,5,2,13,0.00
2014-10-27,64.4,56.5,47.7,41.0,39.0,37.0,69,53,38,30.01,29.82,4,1,10,0.00
2014-10-28,73.5,58.8,47.6,57.0,49.1,40.0,88,71,50,30.03,29.89,4,0,6,0.00
2014-10-29,72.8,60.6,50.9,60.0,53.5,43.0,92,79,43,29.93,29.82,4,1,9,0.02
2014-10-30,59.6,50.5,44.1,47.0,40.9,36.0,96,72,46,30.01,29.93,5,1,9,0.00
2014-10-31,53.2,48.3,42.2,45.0,39.0,36.0,84,71,59,30.01,29.85,4,1,9,0.00
2014-11-1,48.7,44.6,41.5,45.0,40.3,38.0,92,85,72,29.85,29.75,13,3,14,0.66
2014-11-2,47.8,43.2,39.7,38.0,28.5,19.0,86,58,37,30.05,29.76,14,4,20,0.00
2014-11-3,61.6,50.0,38.2,31.0,25.6,20.0,64,41,22,30.14,30.04,8,2,11,0.00
2014-11-4,71.5,60.4,51.4,42.0,31.5,25.0,53,35,21,30.15,30.00,5,1,9,0.00
2014-11-5,63.9,58.7,54.7,45.0,40.0,32.0,67,51,33,30.13,29.98,8,1,9,0.00
2014-11-6,55.4,49.5,47.6,49.0,46.1,37.0,96,89,51,30.11,29.58,2,0,4,0.48
2014-11-7,53.9,46.4,38.3,46.0,36.6,28.0,91,70,53,29.94,29.56,7,2,15,0.00
2014-11-8,48.7,42.2,34.4,33.0,28.1,25.0,74,58,44,30.04,29.90,7,1,8,0.00
2014-11-9,57.6,49.0,41.3,39.0,35.7,33.0,78,62,42,30.01,29.88,5,1,8,0.00
2014-11-10,63.4,48.8,36.1,42.0,37.8,34.0,92,69,36,30.16,30.01,3,0,7,0.00
2014-11-11,64.4,53.4,41.8,57.0,49.6,39.0,95,87,77,30.13,29.89,5,0,11,0.00
2014-11-12,64.6,56.6,46.0,60.0,50.3,32.0,97,81,57,30.07,29.85,7,1,13,0.00
2014-11-13,48.8,42.1,35.6,36.0,31.2,28.0,93,67,46,30.11,29.98,5,1,7,0.22
2014-11-14,41.6,37.3,34.1,34.0,24.0,17.0,93,61,38,30.17,29.95,8,2,13,0.04
2014-11-15,42.0,35.1,30.5,24.0,20.5,17.0,72,56,39,30.36,30.17,6,1,10,0.00
2014-11-16,42.9,38.0,30.2,35.0,26.9,23.0,81,65,54,30.38,30.09,4,0,6,0.02
2014-11-17,48.1,42.3,38.7,47.0,40.3,35.0,97,92,78,30.09,29.50,5,0,9,1.79
2014-11-18,43.9,30.2,23.0,37.0,11.4,4.0,78,47,32,30.10,29.59,10,4,16,0.00
2014-11-19,33.2,27.1,20.5,18.0,8.4,5.0,57,46,33,30.27,30.05,7,2,14,0.00
2014-11-20,45.4,36.4,29.7,26.0,18.9,9.0,65,50,36,30.04,29.83,6,2,16,0.00
2014-11-21,36.1,30.3,26.0,13.0,10.9,8.0,56,45,34,30.50,30.03,8,2,12,0.00
2014-11-22,43.4,35.5,24.8,23.0,16.3,12.0,63,47,32,30.49,30.19,6,2,13,0.00
2014-11-23,57.0,47.7,41.5,47.0,29.6,23.0,86,51,33,30.20,29.97,5,1,8,0.00
2014-11-24,73.1,64.1,49.4,63.0,58.1,47.0,97,81,66,29.96,29.54,14,3,19,0.47
2014-11-25,66.6,56.5,49.5,60.0,39.0,30.0,79,53,38,30.15,29.71,6,2,11,0.00
2014-11-26,49.6,38.4,32.6,37.0,32.7,31.0,95,82,51,30.19,29.76,8,2,15,1.47
2014-11-27,37.0,35.5,31.9,34.0,31.1,25.0,92,84,72,30.05,29.84,4,1,8,0.26
2014-11-28,36.9,30.8,26.1,25.0,19.6,14.0,82,64,49,30.27,30.05,6,1,13,0.00
2014-11-29,40.1,31.5,25.1,31.0,18.1,14.0,71,58,48,30.35,30.20,3,0,5,0.00
2014-11-30,51.0,47.2,40.4,40.0,35.7,32.0,75,65,55,30.19,30.06,5,1,9,0.00
2014-12-1,66.3,52.1,40.7,52.0,42.2,27.0,83,69,58,30.45,30.05,6,2,12,0.10
2014-12-2,41.9,38.0,33.3,41.0,29.6,19.0,95,73,53,30.61,30.27,6,1,10,0.09
2014-12-3,45.6,42.5,39.5,44.0,38.9,26.0,96,88,58,30.26,29.96,5,2,11,0.09
2014-12-4,45.2,39.0,34.0,28.0,24.4,21.0,74,57,44,30.51,30.21,4,1,8,0.00
2014-12-5,41.4,36.9,31.3,38.0,30.4,22.0,95,78,59,30.57,30.33,4,1,8,0.47
2014-12-6,47.4,42.9,39.5,46.0,41.8,38.0,96,95,92,30.33,30.07,6,1,13,1.33
2014-12-7,41.4,36.5,27.7,38.0,20.8,6.0,94,56,32,30.61,30.18,10,4,18,0.04
2014-12-8,34.2,27.9,22.9,30.0,16.6,3.0,84,64,37,30.68,30.33,6,2,11,0.00
2014-12-9,42.9,39.0,34.3,39.0,36.4,30.0,95,90,84,30.32,29.66,9,3,19,1.75
2014-12-10,41.8,37.2,31.8,37.0,31.4,25.0,90,80,70,29.67,29.58,6,2,13,0.01
2014-12-11,37.2,33.7,30.7,29.0,25.7,23.0,86,73,59,29.86,29.59,7,2,12,0.00
2014-12-12,37.3,34.1,31.0,28.0,24.2,21.0,82,67,60,29.99,29.86,6,2,13,0.00
2014-12-13,43.5,37.5,33.6,31.0,27.9,25.0,76,69,53,29.98,29.88,8,2,14,0.00
2014-12-14,45.7,40.5,36.6,33.0,32.0,31.0,81,72,61,29.97,29.85,9,1,11,0.00
2014-12-15,48.9,39.6,32.8,35.0,32.2,29.0,90,76,55,30.11,29.97,2,0,5,0.00
2014-12-16,47.5,40.7,33.5,44.0,37.0,30.0,96,86,78,30.10,29.82,4,0,6,0.20
2014-12-17,54.1,46.6,40.5,43.0,39.1,29.0,96,77,60,29.89,29.79,8,2,11,0.01
2014-12-18,42.4,38.8,36.5,29.0,26.6,24.0,70,62,52,29.99,29.87,8,2,14,0.00
2014-12-19,37.5,34.8,30.9,28.0,24.1,21.0,71,65,53,30.19,29.95,6,2,12,0.00
2014-12-20,33.0,31.7,30.5,23.0,22.4,22.0,75,69,65,30.30,30.18,4,1,6,0.00
2014-12-21,35.7,33.2,30.6,30.0,26.9,24.0,84,78,73,30.33,30.26,3,1,7,0.00
2014-12-22,43.9,38.9,34.2,42.0,35.7,30.0,95,88,83,30.32,30.13,3,1,6,0.04
2014-12-23,46.1,44.5,43.1,45.0,43.6,42.0,97,96,95,30.14,30.06,4,1,7,0.25
2014-12-24,53.4,47.3,44.5,53.0,46.7,44.0,98,98,97,30.07,29.51,2,0,4,1.15
2014-12-25,62.4,51.2,42.8,62.0,40.2,31.0,99,68,46,30.11,29.48,8,2,13,0.11
2014-12-26,49.9,43.3,37.6,33.0,31.3,30.0,75,64,49,30.24,30.11,5,1,7,0.00
2014-12-27,56.6,44.9,35.2,38.0,34.8,31.0,86,69,48,30.25,30.05,3,0,6,0.00
2014-12-28,53.8,46.5,41.8,46.0,39.6,31.0,90,77,64,30.06,29.86,4,1,9,0.11
2014-12-29,43.5,38.5,32.3,32.0,23.3,20.0,69,56,39,30.26,30.06,8,1,8,0.00
2014-12-30,32.9,29.9,26.3,21.0,16.3,12.0,66,57,49,30.40,30.26,4,1,7,0.00
2014-12-31,32.8,28.1,25.1,15.0,11.5,9.0,65,50,38,30.36,30.18,5,1,10,0.00
2015-1-1,38.3,31.3,23.6,20.0,13.3,9.0,58,48,34,30.18,29.96,9,2,16,0.00
2015-1-2,43.2,36.9,32.9,22.0,20.2,19.0,65,51,41,30.45,30.00,7,2,15,0.00